IU2KAM Weather Reports


Display with metric or nautical units.
time (UTC)temp
F
wind
direction
speed
MPH
gust
MPH
rain 1hr
in
rain 24hr
in
rain mn
in
humidity
%
barometer
mb
20221006150037 72 174 0.0 4.0 0.00 0.00 0.00 61 1027.7
20221006145437 74 247 2.0 4.0 0.00 0.00 0.00 59 1027.7
20221006144537 75 246 2.0 2.0 0.00 0.00 0.00 56 1027.8
20221006143637 76 180 0.0 4.0 0.00 0.00 0.00 57 1027.8
20221006142737 74 126 1.0 4.0 0.00 0.00 0.00 59 1027.7
20221006141837 74 67 1.0 2.0 0.00 0.00 0.00 59 1027.8
20221006140937 75 54 0.0 2.0 0.00 0.00 0.00 59 1027.8
20221006140037 74 359 1.0 2.0 0.00 0.00 0.00 61 1027.6
20221006135458 73 261 2.0 2.0 0.00 0.00 0.00 61 1027.5
20221006134537 73 225 0.0 4.0 0.00 0.00 0.00 62 1027.8
20221006133637 73 242 2.0 4.0 0.00 0.00 0.00 60 1027.7
20221006132737 74 247 2.0 4.0 0.00 0.00 0.00 59 1027.7
20221006131837 72 275 2.0 4.0 0.00 0.00 0.00 62 1027.8
20221006130937 74 247 2.0 4.0 0.00 0.00 0.00 60 1027.6
20221006130037 74 281 1.0 2.0 0.00 0.00 0.00 59 1027.9
20221006125437 74 256 1.0 2.0 0.00 0.00 0.00 60 1027.7
20221006124537 73 247 1.0 2.0 0.00 0.00 0.00 58 1027.9
20221006123658 74 243 2.0 2.0 0.00 0.00 0.00 56 1027.9
20221006122736 73 157 2.0 4.0 0.00 0.00 0.00 60 1027.9
20221006121837 72 180 2.0 4.0 0.00 0.00 0.00 60 1028.1
20221006120937 72 180 1.0 4.0 0.00 0.00 0.00 60 1028.2
20221006120037 72 154 2.0 6.0 0.00 0.00 0.00 60 1028.5
20221006115437 72 158 2.0 6.0 0.00 0.00 0.00 61 1028.1
20221006114537 72 157 1.0 2.0 0.00 0.00 0.00 61 1028.2
20221006113636 71 158 1.0 2.0 0.00 0.00 0.00 62 1028.4
20221006112737 72 157 1.0 2.0 0.00 0.00 0.00 62 1028.7
20221006111837 70 160 0.0 4.0 0.00 0.00 0.00 65 1028.8
20221006110937 69 167 2.0 4.0 0.00 0.00 0.00 68 1028.8
20221006110036 69 162 1.0 4.0 0.00 0.00 0.00 68 1028.8
20221006105437 68 157 2.0 4.0 0.00 0.00 0.00 68 1028.9
20221006104537 69 152 2.0 4.0 0.00 0.00 0.00 67 1029.1
20221006103636 69 143 2.0 4.0 0.00 0.00 0.00 67 1028.8
20221006102737 69 157 2.0 2.0 0.00 0.00 0.00 67 1029.0
20221006101836 68 157 0.0 2.0 0.00 0.00 0.00 70 1028.9
20221006100937 68 157 1.0 4.0 0.00 0.00 0.00 70 1029.0
20221006100037 67 157 2.0 2.0 0.00 0.00 0.00 71 1029.2
20221006095437 67 157 2.0 2.0 0.00 0.00 0.00 71 1029.2
20221006094537 67 157 0.0 2.0 0.00 0.00 0.00 71 1029.2
20221006093636 67 157 0.0 2.0 0.00 0.00 0.00 72 1029.2
20221006092737 66 166 0.0 4.0 0.00 0.00 0.00 74 1029.0
20221006091837 66 156 2.0 4.0 0.00 0.00 0.00 73 1028.9
20221006090937 65 64 0.0 2.0 0.00 0.00 0.00 75 1029.0
20221006090037 65 0 0.0 0.0 0.00 0.00 0.00 76 1029.1
20221006085436 64 0 0.0 0.0 0.00 0.00 0.00 76 1029.2
20221006084537 64 0 0.0 0.0 0.00 0.00 0.00 77 1029.2
20221006083636 64 112 0.0 2.0 0.00 0.00 0.00 78 1028.8
20221006082736 63 135 1.0 2.0 0.00 0.00 0.00 77 1028.8
20221006081837 62 247 1.0 2.0 0.00 0.00 0.00 78 1029.1
20221006080936 62 247 2.0 2.0 0.00 0.00 0.00 78 1028.6
20221006080058 62 247 0.0 2.0 0.00 0.00 0.00 80 1028.7
20221006075436 61 247 0.0 2.0 0.00 0.00 0.00 81 1028.7
20221006074536 61 247 0.0 4.0 0.00 0.00 0.00 82 1028.7
20221006073636 60 247 1.0 2.0 0.00 0.00 0.00 83 1028.6
20221006072736 60 247 0.0 2.0 0.00 0.00 0.00 85 1028.4
20221006071858 59 247 0.0 2.0 0.00 0.00 0.00 85 1028.4
20221006070936 59 247 1.0 2.0 0.00 0.00 0.00 85 1028.5
20221006070037 59 247 1.0 2.0 0.00 0.00 0.00 86 1028.4
20221006065437 58 247 1.0 2.0 0.00 0.00 0.00 88 1028.3
20221006064536 57 247 0.0 2.0 0.00 0.00 0.00 90 1028.1
20221006063637 57 247 0.0 2.0 0.00 0.00 0.00 90 1027.8
20221006062736 57 247 1.0 2.0 0.00 0.00 0.00 91 1028.0
20221006061836 56 0 0.0 0.0 0.00 0.00 0.00 91 1027.8
20221006060936 56 247 0.0 2.0 0.00 0.00 0.00 91 1027.9
20221006060036 56 225 0.0 2.0 0.00 0.00 0.00 91 1027.4
20221006055437 56 225 0.0 2.0 0.00 0.00 0.00 91 1027.8
20221006054536 56 225 2.0 2.0 0.00 0.00 0.00 91 1027.7
20221006053636 56 225 0.0 2.0 0.00 0.00 0.00 91 1027.7
20221006052736 56 225 0.0 2.0 0.00 0.00 0.00 91 1027.5
20221006051836 56 225 0.0 4.0 0.00 0.00 0.00 90 1027.5
20221006050957 56 225 2.0 2.0 0.00 0.00 0.00 90 1027.5
20221006050037 56 225 0.0 2.0 0.00 0.00 0.00 90 1027.3
20221006045436 56 225 1.0 2.0 0.00 0.00 0.00 90 1027.6
20221006044536 56 0 0.0 0.0 0.00 0.00 0.00 90 1027.3
20221006043636 56 0 0.0 0.0 0.00 0.00 0.00 90 1027.2
20221006042736 56 0 0.0 0.0 0.00 0.00 0.00 91 1027.1
20221006041836 56 0 0.0 0.0 0.00 0.00 0.00 91 1027.3
20221006040957 56 0 0.0 0.0 0.00 0.00 0.00 92 1027.0
20221006040036 56 225 0.0 2.0 0.00 0.00 0.00 92 1027.2
20221006035457 56 225 0.0 2.0 0.00 0.00 0.00 92 1027.1
20221006034536 56 0 0.0 0.0 0.00 0.00 0.00 92 1027.1
20221006033636 56 0 0.0 0.0 0.00 0.00 0.00 91 1027.2
20221006032736 56 0 0.0 0.0 0.00 0.00 0.00 91 1027.0
20221006031836 57 0 0.0 0.0 0.00 0.00 0.00 91 1027.1
20221006030936 57 0 0.0 0.0 0.00 0.00 0.00 91 1027.0
20221006030037 57 0 0.0 0.0 0.00 0.00 0.00 90 1026.9
20221006025436 57 225 0.0 2.0 0.00 0.00 0.00 90 1027.0
20221006024536 57 225 0.0 2.0 0.00 0.00 0.00 90 1027.2
20221006023636 57 225 1.0 2.0 0.00 0.00 0.00 90 1027.1
20221006022736 57 225 1.0 2.0 0.00 0.00 0.00 91 1027.1
20221006021836 57 225 0.0 2.0 0.00 0.00 0.00 91 1027.1
20221006020936 57 225 0.0 2.0 0.00 0.00 0.00 90 1027.0
20221006020036 58 225 0.0 2.0 0.00 0.00 0.00 90 1027.0
20221006015457 58 225 0.0 2.0 0.00 0.00 0.00 90 1027.1
20221006014536 58 225 1.0 2.0 0.00 0.00 0.00 90 1027.3
20221006013636 58 225 1.0 2.0 0.00 0.00 0.00 90 1027.2
20221006012757 58 225 2.0 2.0 0.00 0.00 0.00 90 1027.2
20221006011836 58 225 2.0 2.0 0.00 0.00 0.00 90 1027.2
20221006010957 58 225 0.0 2.0 0.00 0.00 0.00 90 1027.3
20221006010036 59 225 1.0 2.0 0.00 0.00 0.00 90 1027.2
20221006005436 59 225 1.0 2.0 0.00 0.00 0.00 90 1027.4
20221006004536 59 225 0.0 2.0 0.00 0.00 0.00 89 1027.4
20221006003636 59 225 0.0 2.0 0.00 0.00 0.00 89 1027.5
20221006002736 59 225 1.0 2.0 0.00 0.00 0.00 89 1027.4
20221006001836 59 225 1.0 2.0 0.00 0.00 0.00 89 1027.3
20221006000936 59 225 1.0 2.0 0.00 0.00 0.00 88 1027.5
20221006000057 59 225 0.0 2.0 0.00 0.00 0.00 88 1027.5
20221005235436 60 225 1.0 2.0 0.00 0.00 0.00 88 1027.4
20221005234536 60 0 0.0 0.0 0.00 0.00 0.00 88 1027.6
20221005233636 60 0 0.0 0.0 0.00 0.00 0.00 88 1027.5
20221005232757 60 0 0.0 0.0 0.00 0.00 0.00 88 1027.6
20221005231836 60 0 0.0 0.0 0.00 0.00 0.00 88 1027.7
20221005230936 60 0 0.0 0.0 0.00 0.00 0.00 88 1027.6
20221005230036 60 0 0.0 0.0 0.00 0.00 0.00 88 1027.7
20221005225436 60 0 0.0 0.0 0.00 0.00 0.00 88 1027.6
20221005224536 60 0 0.0 0.0 0.00 0.00 0.00 87 1027.9
20221005223636 61 0 0.0 0.0 0.00 0.00 0.00 87 1027.7
20221005222736 61 0 0.0 0.0 0.00 0.00 0.00 86 1027.9
20221005221836 61 0 0.0 0.0 0.00 0.00 0.00 86 1027.9
20221005220936 62 0 0.0 0.0 0.00 0.00 0.00 86 1028.0
20221005220036 61 0 0.0 0.0 0.00 0.00 0.00 86 1028.1
20221005215436 62 0 0.0 0.0 0.00 0.00 0.00 86 1028.0
20221005214640 61 0 0.0 0.0 0.00 0.00 0.00 85 1028.0
20221005213635 62 0 0.0 0.0 0.00 0.00 0.00 84 1028.4
20221005212736 62 0 0.0 0.0 0.00 0.00 0.00 83 1028.3
20221005211835 63 0 0.0 0.0 0.00 0.00 0.00 83 1028.5
20221005210957 62 0 0.0 0.0 0.00 0.00 0.00 84 1028.3
20221005210036 63 0 0.0 0.0 0.00 0.00 0.00 83 1028.2
20221005205436 63 247 0.0 2.0 0.00 0.00 0.00 82 1028.3
20221005204535 63 247 0.0 2.0 0.00 0.00 0.00 82 1028.4
20221005203636 63 247 0.0 2.0 0.00 0.00 0.00 82 1028.3
20221005202735 64 247 1.0 2.0 0.00 0.00 0.00 82 1028.3
20221005201836 64 247 0.0 2.0 0.00 0.00 0.00 81 1028.1
20221005200935 64 247 0.0 2.0 0.00 0.00 0.00 80 1028.1
20221005200036 64 247 1.0 2.0 0.00 0.00 0.00 80 1027.8
20221005195436 64 247 1.0 2.0 0.00 0.00 0.00 81 1028.1
20221005194536 64 247 0.0 2.0 0.00 0.00 0.00 80 1027.9
20221005193635 64 247 0.0 2.0 0.00 0.00 0.00 80 1027.9
20221005192736 64 247 0.0 2.0 0.00 0.00 0.00 80 1027.8
20221005191857 64 247 0.0 2.0 0.00 0.00 0.00 80 1027.9
20221005190935 64 247 0.0 2.0 0.00 0.00 0.00 78 1028.0
20221005190036 65 247 1.0 4.0 0.00 0.00 0.00 78 1027.8
20221005185436 65 247 2.0 2.0 0.00 0.00 0.00 77 1028.0
20221005184535 65 247 0.0 2.0 0.00 0.00 0.00 77 1027.9
20221005183635 65 247 0.0 2.0 0.00 0.00 0.00 77 1027.7
20221005182757 65 247 1.0 2.0 0.00 0.00 0.00 76 1027.8
20221005181836 65 247 0.0 2.0 0.00 0.00 0.00 76 1027.5
20221005180936 65 247 0.0 2.0 0.00 0.00 0.00 76 1027.6
20221005180036 65 247 0.0 2.0 0.00 0.00 0.00 76 1027.8
20221005175436 65 247 0.0 2.0 0.00 0.00 0.00 76 1027.6
20221005174535 65 0 0.0 0.0 0.00 0.00 0.00 75 1027.7
20221005173657 65 247 0.0 2.0 0.00 0.00 0.00 75 1027.7
20221005172736 66 247 0.0 2.0 0.00 0.00 0.00 74 1027.7
20221005171857 67 247 1.0 2.0 0.00 0.00 0.00 73 1027.4
20221005170936 67 247 0.0 2.0 0.00 0.00 0.00 71 1027.5
20221005170035 68 247 0.0 2.0 0.00 0.00 0.00 69 1027.2
20221005165436 68 247 0.0 2.0 0.00 0.00 0.00 69 1027.3
20221005164535 69 247 0.0 2.0 0.00 0.00 0.00 68 1027.2
20221005163656 69 247 1.0 2.0 0.00 0.00 0.00 68 1027.2
20221005162735 69 247 2.0 4.0 0.00 0.00 0.00 66 1026.9
20221005161835 70 245 0.0 4.0 0.00 0.00 0.00 66 1027.1
20221005160935 70 225 0.0 4.0 0.00 0.00 0.00 66 1027.0
20221005160035 70 225 2.0 4.0 0.00 0.00 0.00 66 1027.1
20221005155435 70 225 2.0 4.0 0.00 0.00 0.00 66 1026.9
20221005154556 70 225 0.0 2.0 0.00 0.00 0.00 66 1027.0
20221005153635 70 225 0.0 2.0 0.00 0.00 0.00 67 1027.1
20221005152757 70 225 0.0 2.0 0.00 0.00 0.00 68 1026.8
20221005151856 70 202 0.0 2.0 0.00 0.00 0.00 68 1026.9
20221005150935 70 198 0.0 4.0 0.00 0.00 0.00 67 1026.8